Location: Fayetteville
(35.0530°N, 78.8790°W)
Time: 22:35:49
(UTC-04:00)

ISS - Visible Passes

Search period start: 31 October 2014 00:00
Search period end: 09 November 2014 23:00
Orbit: 412 x 417 km, 51.6° (Epoch: 31 October)

Date Brightness Start Highest point End Pass type
(mag) Time Alt. Az. Time Alt. Az. Time Alt. Az.
31 Oct -0.2 18:47:36 10° W 18:49:52 17° SW 18:52:08 10° S visible
07 Nov -0.2 05:32:11 10° SSE 05:34:12 15° SE 05:36:13 10° E visible
09 Nov -2.4 05:28:32 10° SSW 05:31:43 49° SE 05:34:56 10° ENE visible
